Ellsworth Air Force Base, SD

3:33 AM MDT on September 25, 2016 (GMT -0600)
Ellsworth Air Force Base

Weather History for KRCA - April, 2013

Change the Weather History Date:

Sunday, April 7, 2013

  Actual Average Record
Temperature  
Mean Temperature 48 °F -  
Max Temperature 58 °F 51 °F 78 °F (2005)
Min Temperature 40 °F 29 °F 11 °F (2007)
Degree Days  
Heating Degree Days 16    
Moisture  
Dew Point 38 °F    
Average Humidity 63    
Maximum Humidity 86    
Minimum Humidity 45    
Precipitation  
Precipitation 0.04 in - - ()
Sea Level Pressure  
Sea Level Pressure 29.66 in    
Wind  
Wind Speed 5 mph (ENE)    
Max Wind Speed 15 mph    
Max Gust Speed -    
Visibility 10 miles    
Events Rain    
Averages and records for this station are not official NWS values.
T = Trace of Precipitation, MM = Missing Value Source: NWS Daily Summary

Daily Weather History Graph

Daily Weather History Graph

Search for Another Location

Airport or City:

Trip Planner

Search our weather history database for the weather conditions in past years. The results will help you decide how hot, cold, wet, or windy it might be!

Date:

Astronomy

Apr. 07, 2013 Rise Set
Actual Time 6:22 AM MDT 7:27 PM MDT
Civil Twilight 5:52 AM MDT 7:56 PM MDT
Nautical Twilight 5:17 AM MDT 8:32 PM MDT
Astronomical Twilight 4:40 AM MDT 9:09 PM MDT
Moon 4:46 AM MDT (4/7) 4:57 PM MDT (4/7)
Length of Visible Light 14h 04m
Length of Day
13h 04m
Waning Crescent, 8% of the Moon is Illuminated
Apr 7
Waning Crescent
Apr 10
New
Apr 18
First Quarter
Apr 25
Full
May 2
Last Quarter

Hourly Weather History & Observations

Time (MDT) Temp. Windchill Dew Point Humidity Pressure Visibility Wind Dir Wind Speed Gust Speed Precip Events Conditions
12:55 AM 45.7 °F 42.0 °F 30.7 °F 56% 29.76 in 10.0 mi SE 6.9 mph - N/A   Clear
1:55 AM 43.0 °F 39.5 °F 31.1 °F 63% 29.76 in 10.0 mi SSE 5.8 mph - N/A   Overcast
2:55 AM 43.3 °F - 32.4 °F 65% 29.74 in 10.0 mi Calm Calm - N/A   Overcast
3:55 AM 41.5 °F 39.6 °F 32.7 °F 71% 29.73 in 10.0 mi SE 3.5 mph - N/A   Scattered Clouds
4:55 AM 42.4 °F - 32.5 °F 68% 29.73 in 10.0 mi Calm Calm - N/A   Overcast
5:55 AM 40.6 °F 35.4 °F 32.5 °F 73% 29.73 in 10.0 mi NE 8.1 mph - N/A   Overcast
6:34 AM 41.0 °F 35.2 °F 33.8 °F 76% 29.73 in 10.0 mi North 9.2 mph - N/A   Mostly Cloudy
6:43 AM 41.0 °F 34.7 °F 33.8 °F 76% 29.73 in 10.0 mi North 10.4 mph - N/A   Overcast
6:55 AM 41.0 °F 39.0 °F 33.6 °F 75% 29.74 in 10.0 mi Variable 3.5 mph - 0.00 in   Overcast
7:55 AM 41.5 °F 33.8 °F 33.3 °F 72% 29.74 in 10.0 mi North 15.0 mph - N/A   Overcast
8:55 AM 46.6 °F - 35.6 °F 66% 29.72 in 10.0 mi North 4.6 mph - N/A   Overcast
9:55 AM 48.2 °F - 35.8 °F 62% 29.70 in 10.0 mi ENE 4.6 mph - N/A   Clear
10:55 AM 50.0 °F - 35.8 °F 58% 29.70 in 10.0 mi East 6.9 mph - N/A   Clear
11:55 AM 55.8 °F - 36.9 °F 49% 29.67 in 10.0 mi NE 6.9 mph - N/A   Clear
12:55 PM 57.6 °F - 36.5 °F 45% 29.65 in 10.0 mi ENE 3.5 mph - N/A   Partly Cloudy
1:43 PM 57.2 °F - 37.4 °F 48% 29.65 in 10.0 mi Calm Calm - N/A   Light Drizzle
1:54 PM 57.2 °F - 37.4 °F 48% 29.65 in 10.0 mi Calm Calm - N/A   Overcast
1:55 PM 56.8 °F - 36.5 °F 47% 29.65 in 10.0 mi Calm Calm - 0.00 in   Overcast
2:39 PM 55.4 °F - 41.0 °F 58% 29.65 in 10.0 mi NNW 11.5 mph - N/A Rain Light Rain
2:53 PM 57.2 °F - 41.0 °F 55% 29.65 in 10.0 mi North 8.1 mph - N/A   Mostly Cloudy
2:55 PM 56.8 °F - 39.9 °F 53% 29.65 in 10.0 mi North 8.1 mph - 0.00 in   Mostly Cloudy
3:55 PM 57.6 °F - 37.8 °F 48% 29.61 in 10.0 mi Calm Calm - N/A   Mostly Cloudy
4:22 PM 57.2 °F - 37.4 °F 48% 29.62 in 10.0 mi South 3.5 mph - N/A Rain Light Rain
4:46 PM 57.2 °F - 39.2 °F 51% 29.62 in 10.0 mi Calm Calm - N/A   Overcast
4:55 PM 57.7 °F - 41.2 °F 54% 29.62 in 10.0 mi North 11.5 mph - 0.00 in   Overcast
5:55 PM 56.3 °F - 38.1 °F 51% 29.60 in 10.0 mi ENE 9.2 mph - N/A   Clear
6:44 PM 55.4 °F - 37.4 °F 51% 29.60 in 10.0 mi NNE 5.8 mph - N/A Rain Light Rain
6:55 PM 55.0 °F - 39.2 °F 55% 29.60 in 10.0 mi Calm Calm - 0.00 in   Light Drizzle
6:57 PM 55.4 °F - 39.2 °F 54% 29.60 in 10.0 mi Calm Calm - N/A   Overcast
7:09 PM 55.4 °F - 41.0 °F 58% 29.61 in 10.0 mi SW 5.8 mph - N/A Rain Light Rain
7:15 PM 53.6 °F - 44.6 °F 72% 29.63 in 8.0 mi SSW 10.4 mph - N/A Rain Light Rain
7:46 PM 50.0 °F - 42.8 °F 76% 29.62 in 10.0 mi ESE 5.8 mph - N/A   Mostly Cloudy
7:55 PM 49.8 °F - 43.0 °F 77% 29.60 in 10.0 mi SE 6.9 mph - 0.03 in   Mostly Cloudy
8:55 PM 48.6 °F - 44.4 °F 86% 29.62 in 10.0 mi Calm Calm - N/A   Overcast
9:55 PM 47.8 °F - 41.5 °F 79% 29.63 in 10.0 mi East 8.1 mph - N/A   Scattered Clouds
10:44 PM 46.4 °F 42.4 °F 41.0 °F 81% 29.62 in 10.0 mi East 8.1 mph - N/A Rain Light Rain
10:55 PM 46.2 °F - 39.7 °F 78% 29.63 in 10.0 mi Calm Calm - 0.01 in   Mostly Cloudy
11:55 PM 44.6 °F 40.2 °F 40.1 °F 84% 29.60 in 10.0 mi ENE 8.1 mph - N/A   Partly Cloudy